Regional Weather Roundup
Issued by NWS

Home | Current Version | Previous Version | Graphics & Text | Print | Product List | Glossary On
Versions: 1 2 3 4 5 6 7 8 9 10 11 12 13 14 15 16 17 18 19 20 21 22 23 24 25 26 27 28 29 30 31 32 33 34 35 36 37 38 39 40 41 42 43 44 45 46 47 48 49 50
000
ASUS45 KCYS 191810
RWRWY

WYOMING REGIONAL WEATHER ROUNDUP
NATIONAL WEATHER SERVICE CHEYENNE WY
1200 PM MDT SAT AUG 19 2017

NOTE:  "FAIR" INDICATES FEW OR NO CLOUDS BELOW 12,000 FEET
WITH NO SIGNIFICANT WEATHER AND/OR OBSTRUCTIONS TO VISIBILITY.

WYZ001-191900-
YELLOWSTONE NATIONAL PARK

CITY           SKY/WX    TMP DP  RH WIND       PRES   REMARKS
LK YELLOWSTONE   N/A     65  33  30 MISG      30.28F
6HR MIN TEMP:  36; 6HR MAX TEMP:  65;

W YELLOWSTONE  NOT AVBL

$$
WYZ002>013-054>058-071-098>099-191900-
NORTHERN WYOMING

CITY           SKY/WX    TMP DP  RH WIND       PRES   REMARKS
JACKSON        FAIR      70  37  29 VRB7      30.20F
CODY           FAIR      78  42  27 N9        30.05F
GREYBULL       FAIR      82  33  17 S5        29.96F
6HR MIN TEMP:  52; 6HR MAX TEMP:  82;

WORLAND        FAIR      83  37  19 W3        29.98F
6HR MIN TEMP:  50; 6HR MAX TEMP:  83;

SHERIDAN       CLOUDY    86  32  14 N15       29.98F HAZE
6HR MIN TEMP:  51; 6HR MAX TEMP:  86;

BUFFALO        CLOUDY    83  27  13 N17       30.05S HAZE
6HR MIN TEMP:  63; 6HR MAX TEMP:  84;

GILLETTE       FAIR      85  31  14 N14       29.98F
6HR MIN TEMP:  63; 6HR MAX TEMP:  86;

HULETT         FAIR      82  34  17 N9        29.99S
NEWCASTLE      FAIR      86  34  15 W8G17     29.96F

$$
WYZ014>020-022>026-101>103-191900-
CENTRAL WYOMING

CITY           SKY/WX    TMP DP  RH WIND       PRES   REMARKS
BIG PINEY      FAIR      74  25  16 S6        30.25F
6HR MIN TEMP:  35; 6HR MAX TEMP:  74;

PINEDALE       FAIR      72  21  15 N5        30.26F
DUBOIS         FAIR      73  21  14 W20G30    30.19F
LANDER           N/A    N/A N/A N/A MISG      30.09F
RIVERTON       FAIR      78  43  28 E7        30.09F
6HR MIN TEMP:  60; 6HR MAX TEMP:  79;

CASPER         FAIR      84  31  14 SW14G21   30.06F
6HR MIN TEMP:  53; 6HR MAX TEMP:  84;

DOUGLAS        FAIR      87  34  15 NW12      30.03F
6HR MIN TEMP:  48; 6HR MAX TEMP:  87;


$$
WYZ021-027>030-104>119-191900-
SOUTHERN WYOMING

CITY           SKY/WX    TMP DP  RH WIND       PRES   REMARKS
EVANSTON       FAIR      79  26  14 W9G22     30.28S
6HR MIN TEMP:  51; 6HR MAX TEMP:  80;

FORT BRIDGER   FAIR      81  21  10 NW18G24   30.30S
ROCK SPRINGS   FAIR      79  22  12 NW13G25   30.24F
6HR MIN TEMP:  54; 6HR MAX TEMP:  79;

RAWLINS        FAIR      79  25  13 W16G26    30.22F
6HR MIN TEMP:  52; 6HR MAX TEMP:  79;

SARATOGA       FAIR      77  25  14 W18G26    30.25F
LARAMIE        FAIR      79  28  15 NW16G22   30.21F
6HR MIN TEMP:  44; 6HR MAX TEMP:  79;

CHEYENNE       FAIR      84  33  16 W22       30.14F
6HR MIN TEMP:  59; 6HR MAX TEMP:  84;

TORRINGTON     FAIR      89  30  12 NW15      29.97F
6HR MIN TEMP:  52; 6HR MAX TEMP:  90;

PINE BLUFFS    FAIR      86  32  14 NW12G17   30.06F

$$



USA.gov is the U.S. government's official web portal to all federal, state and local government web resources and services.